Location: Newark
(48.6461°N, 4.3644°W)
Time: 08:29:19
(UTC+00:00)

Altair - Pass Details

Date: 24 January 2021
Orbit: 1501 x 1682 km, 47.2° (Epoch: 24 February)

Event Time Altitude Azimuth Distance (km) Brightness Sun altitude
Exits shadow 03:05:01 13° 141° (SE) 3,647 9.5 -47.1°
Maximum altitude 03:07:44 15° 123° (ESE) 3,539 9.5 -46.7°
Drops below altitude 10° 03:12:36 10° 94° (E) 3,935 10.1 -46.0°
Sets 03:17:43 0° 73° (ENE) 4,939 10.9 -45.2°
